Weather reports worldwide

Advertisment
Le Luc, France (7675): temperature & dewpoint: 20.09.2018 17:00:00 - 26.09.2018 17:00:00 (CEST)Le Luc, France (7675): temperature 5cm: 20.09.2018 17:00:00 - 26.09.2018 17:00:00 (CEST)Le Luc, France (7675): wind speed & gusts: 20.09.2018 17:00:00 - 26.09.2018 17:00:00 (CEST)Le Luc, France (7675): wind direction: 20.09.2018 17:00:00 - 26.09.2018 17:00:00 (CEST)Le Luc, France (7675): reduced air pressure: 20.09.2018 17:00:00 - 26.09.2018 17:00:00 (CEST)Le Luc, France (7675): visibility: 20.09.2018 17:00:00 - 26.09.2018 17:00:00 (CEST)Le Luc, France (7675): sunshine duration: 20.09.2018 17:00:00 - 26.09.2018 17:00:00 (CEST)Le Luc, France (7675): precipitation: 20.09.2018 17:00:00 - 26.09.2018 17:00:00 (CEST)
Date & Time tt [°C] td [°C] tt 5cm [°C] ff [km/h] ff [kn] fx [km/h] fx [kn] dd ppp [hPa] vv [km] sd [min] rr [mm]
26.09.2018 17:00:00 22,4 10,8 25,2 19 10 29 16 SE 1032,1 30 60 0,0
26.09.2018 16:00:00 23,0 10,4 28,1 15 8 29 15 SE 1032,2 27 60 0,0
26.09.2018 15:00:00 22,4 9,9 27,3 15 8 36 19 SE 1032,7 30 60 0,0
26.09.2018 14:00:00 22,3 10,1 27,5 22 12 37 20 SE 1033,0 30 60 0,0
26.09.2018 13:00:00 22,1 9,3 26,8 16 9 34 18 ENE 1033,5 31 60 0,0
26.09.2018 12:00:00 21,8 9,0 24,8 21 11 39 21 ESE 1033,3 30 60 0,0
26.09.2018 11:00:00 21,2 9,4 23,7 29 15 44 24 ESE 1033,6 30 60 0,0
26.09.2018 10:00:00 20,7 9,0 22,4 28 15 39 21 E 1033,0 32 60 0,0
26.09.2018 09:00:00 20,0 9,0 18,6 20 11 34 18 E 1032,3 41 60 0,0
26.09.2018 08:00:00 18,5 7,9 15,2 14 8 30 16 E 1032,2 50 13 0,0
26.09.2018 07:00:00 17,3 8,2 14,2 11 6 26 14 ENE 1031,5 50 0 0,0
26.09.2018 06:00:00 17,0 8,9 13,8 9 5 17 9 E 1031,0 43 0 0,0
26.09.2018 05:00:00 16,9 8,3 14,8 9 5 22 12 ENE 1031,0 50 0 0,0
26.09.2018 04:00:00 17,1 8,8 15,1 9 5 25 14 NE 1031,0 50 0 0,0
26.09.2018 03:00:00 18,0 8,3 16,1 13 7 27 15 NE 1031,0 50 0 0,0
26.09.2018 02:00:00 19,0 8,9 17,3 13 7 26 14 ENE 1030,8 49 0 0,0
26.09.2018 01:00:00 19,1 8,4 16,4 10 6 21 12 E 1030,3 50 0 0,0
26.09.2018 00:00:00 19,8 9,1 16,6 9 5 23 12 E 1029,7 48 0 0,0
25.09.2018 23:00:00 17,7 9,1 16,0 0 0 8 4 N 1029,5 48 0 0,0
25.09.2018 22:00:00 18,7 8,9 16,3 2 1 14 7 WNW 1028,9 49 0 0,0
25.09.2018 21:00:00 19,7 8,7 17,4 5 3 16 9 ENE 1028,4 49 0 0,0
25.09.2018 20:00:00 20,2 9,1 19,0 8 4 22 12 E 1027,7 40 0 0,0
25.09.2018 19:00:00 21,7 10,2 21,5 14 8 36 19 ESE 1027,2 40 38 0,0
25.09.2018 18:00:00 22,9 10,3 24,8 22 12 35 19 ESE 1026,6 50 60 0,0
25.09.2018 17:00:00 23,4 11,1 25,7 22 12 35 19 ESE 1026,5 36 60 0,0
25.09.2018 16:00:00 23,7 10,4 27,9 22 12 36 20 SE 1026,4 50 60 0,0
25.09.2018 15:00:00 23,6 10,6 28,3 23 13 49 27 ESE 1026,7 50 60 0,0
25.09.2018 14:00:00 23,8 10,8 26,6 21 11 40 22 E 1026,8 50 56 0,0
25.09.2018 13:00:00 23,8 10,5 27,2 27 15 46 25 ESE 1026,9 50 60 0,0
25.09.2018 12:00:00 23,5 9,8 26,6 31 17 47 26 E 1026,8 50 60 0,0
25.09.2018 11:00:00 23,5 9,1 26,1 31 17 48 26 E 1026,4 50 60 0,0
25.09.2018 10:00:00 23,4 9,0 23,1 27 15 47 25 E 1025,6 50 45 0,0
25.09.2018 09:00:00 21,8 9,7 16,2 12 7 23 13 ENE 1025,0 50 48 0,0
25.09.2018 08:00:00 17,3 9,2 14,2 8 5 15 8 NNE 1024,8 50 0 0,0
25.09.2018 07:00:00 15,9 8,9 14,5 7 4 15 8 NW 1024,2 50 0 0,0
25.09.2018 06:00:00 16,0 8,7 14,7 6 3 10 5 NW 1023,5 50 0 0,0
25.09.2018 05:00:00 16,3 8,8 14,7 5 3 8 4 WNW 1023,3 50 0 0,0
25.09.2018 04:00:00 16,0 9,0 14,8 2 1 5 3 WNW 1023,3 50 0 0,0
25.09.2018 03:00:00 15,8 8,8 13,9 0 0 6 3 N 1023,3 50 0 0,0
25.09.2018 02:00:00 16,0 8,5 14,4 4 2 13 7 ESE 1022,9 50 0 0,0
25.09.2018 01:00:00 18,1 8,1 16,0 4 2 20 11 WNW 1022,1 50 0 0,0
25.09.2018 00:00:00 19,9 8,2 18,1 13 7 18 10 WSW 1021,4 50 0 0,0
24.09.2018 23:00:00 19,8 8,5 18,4 6 4 16 9 SW 1020,7 50 0 0,0
24.09.2018 22:00:00 20,8 8,4 19,4 9 5 17 9 SW 1020,0 50 0 0,0
24.09.2018 21:00:00 21,9 8,7 20,7 9 5 19 11 SW 1019,1 50 0 0,0
24.09.2018 20:00:00 24,3 8,7 22,7 11 6 22 12 WSW 1018,0 40 3 0,0
24.09.2018 19:00:00 26,5 8,5 26,1 16 9 29 15 WNW 1016,7 40 35 0,0
24.09.2018 18:00:00 29,0 9,2 31,1 16 9 23 12 WNW 1015,7 40 58 0,0
24.09.2018 17:00:00 29,6 9,7 32,0 14 8 23 13 WNW 1015,5 40 44 0,0
24.09.2018 16:00:00 29,5 10,1 33,9 14 8 29 16 W 1015,6 40 56 0,0
24.09.2018 15:00:00 28,9 11,5 34,5 8 5 27 15 W 1015,7 44 52 0,0
24.09.2018 14:00:00 28,4 9,6 31,9 15 8 32 18 W 1015,7 37 48 0,0
24.09.2018 13:00:00 26,7 9,1 29,7 21 11 36 20 W 1015,8 40 42 0,0
24.09.2018 12:00:00 25,1 9,0 26,7 25 14 44 24 WNW 1015,6 80 56 0,0
24.09.2018 11:00:00 23,4 9,8 25,5 25 13 45 25 WNW 1015,3 80 52 0,0
24.09.2018 10:00:00 21,7 9,6 23,0 31 17 72 39 W 1014,7 80 60 0,0
24.09.2018 09:00:00 21,0 9,9 21,9 48 26 68 37 WNW 1012,5 80 60 0,0
24.09.2018 08:00:00 21,4 11,4 21,1 37 20 55 30 W 1013,0 80 16 0,0
24.09.2018 07:00:00 23,0 12,6 22,0 28 15 53 28 W 1013,3 80 0 0,0
24.09.2018 06:00:00 23,8 13,9 23,1 38 21 58 31 WNW 1012,7 - 0 0,0
24.09.2018 05:00:00 25,6 14,4 24,6 32 17 58 31 WNW 1012,6 - 0 0,0
24.09.2018 04:00:00 26,3 14,1 24,6 37 20 63 34 WNW 1012,6 - 0 0,0
24.09.2018 03:00:00 26,3 14,4 22,5 23 12 43 23 W 1013,2 - 0 0,0
24.09.2018 02:00:00 24,8 14,9 22,1 5 3 27 15 W 1013,7 - 0 0,0
24.09.2018 01:00:00 25,9 16,2 19,6 15 8 27 14 W 1014,0 - 0 0,0
24.09.2018 00:00:00 21,8 16,1 19,0 3 1 10 6 NNW 1014,8 - 0 0,0
23.09.2018 23:00:00 21,8 17,4 19,3 0 0 9 5 N 1015,1 - 0 0,0
23.09.2018 22:00:00 22,8 18,1 20,1 6 3 8 4 SE 1015,6 - 0 0,0
23.09.2018 21:00:00 23,7 18,3 21,3 0 0 10 5 N 1016,0 - 0 0,0
23.09.2018 20:00:00 25,0 18,4 24,1 10 6 17 9 NE 1015,6 - 0 0,0
23.09.2018 19:00:00 28,7 13,4 29,0 11 6 26 14 W 1015,4 - 41 0,0
23.09.2018 18:00:00 29,6 14,2 33,5 16 8 26 14 WSW 1015,4 - 60 0,0
23.09.2018 17:00:00 31,0 15,0 32,7 9 5 25 13 S 1015,6 - 60 0,0
23.09.2018 16:00:00 32,4 15,0 39,1 6 3 14 8 W 1016,0 - 60 0,0
23.09.2018 15:00:00 31,3 14,0 38,2 3 2 17 9 N 1016,9 - 60 0,0
23.09.2018 14:00:00 30,0 13,7 37,9 5 3 16 9 SW 1017,7 - 60 0,0
23.09.2018 13:00:00 28,6 14,8 35,5 6 4 15 8 N 1018,4 - 60 0,0
23.09.2018 12:00:00 26,9 16,2 33,3 2 1 9 5 W 1019,0 - 60 0,0
23.09.2018 11:00:00 25,3 11,8 25,7 2 1 5 3 E 1019,3 - 52 0,0
23.09.2018 10:00:00 21,5 10,0 21,1 0 0 8 5 N 1019,4 - 40 0,0
23.09.2018 09:00:00 18,0 11,3 17,0 2 1 5 3 NNW 1019,2 - 48 0,0
23.09.2018 08:00:00 14,6 11,4 12,4 3 1 9 5 N 1018,8 - 17 0,0
23.09.2018 07:00:00 14,1 10,9 12,2 5 3 11 6 SSW 1018,4 - 0 0,0
23.09.2018 06:00:00 14,0 11,0 12,4 3 2 7 4 E 1018,1 - 0 0,0
23.09.2018 05:00:00 14,6 10,8 13,4 5 3 10 6 SE 1018,1 - 0 0,0
23.09.2018 04:00:00 15,7 11,9 13,5 3 2 9 5 W 1018,3 - 0 0,0
23.09.2018 03:00:00 16,2 12,6 14,6 0 0 8 4 N 1018,7 - 0 0,0
23.09.2018 02:00:00 17,7 12,6 15,2 3 2 6 3 W 1018,7 - 0 0,0
23.09.2018 01:00:00 18,3 12,1 16,7 2 1 9 5 S 1018,8 - 0 0,0
23.09.2018 00:00:00 18,9 12,4 17,2 5 3 8 4 SSW 1018,7 - 0 0,0
22.09.2018 23:00:00 19,9 13,4 17,5 0 0 5 3 N 1018,6 - 0 0,0
22.09.2018 22:00:00 21,9 16,0 19,9 4 2 9 5 SE 1017,9 - 0 0,0
22.09.2018 21:00:00 23,8 16,3 20,6 3 2 11 6 WNW 1017,4 - 0 0,0
22.09.2018 20:00:00 24,8 15,7 23,2 7 4 10 6 NNW 1016,3 - 0 0,0
22.09.2018 19:00:00 28,2 14,8 27,7 8 5 29 16 NNE 1015,5 - 35 0,0
22.09.2018 18:00:00 31,3 7,7 32,1 22 12 40 21 WNW 1014,9 - 49 0,0
22.09.2018 17:00:00 32,6 6,7 33,7 26 14 41 22 WNW 1014,5 - 60 0,0
22.09.2018 16:00:00 32,7 6,1 36,6 27 14 37 20 W 1014,6 - 57 0,0
22.09.2018 15:00:00 32,3 5,7 38,2 20 11 34 19 W 1014,8 - 60 0,0
22.09.2018 14:00:00 31,1 6,2 36,1 22 12 32 18 W 1015,4 - 60 0,0
22.09.2018 13:00:00 29,5 9,6 33,7 18 10 36 20 W 1015,8 - 60 0,0
22.09.2018 12:00:00 26,8 10,1 31,8 24 13 34 18 W 1016,0 - 60 0,0
22.09.2018 11:00:00 24,6 10,1 29,0 21 11 35 19 W 1016,7 - 60 0,0
22.09.2018 10:00:00 23,8 10,8 26,0 19 10 30 16 W 1016,7 - 60 0,0
22.09.2018 09:00:00 21,9 10,1 21,3 16 9 35 19 W 1016,1 - 41 0,0
22.09.2018 08:00:00 21,3 11,0 20,0 14 8 28 15 WSW 1016,0 - 18 0,0
22.09.2018 07:00:00 21,6 12,2 20,6 20 11 38 21 W 1015,2 - 0 0,0
22.09.2018 06:00:00 22,5 12,7 21,4 23 13 41 22 W 1014,9 - 0 0,0
22.09.2018 05:00:00 22,8 12,7 21,9 22 12 51 28 W 1015,1 - 0 0,0
22.09.2018 04:00:00 24,4 12,0 23,6 30 16 50 27 WNW 1014,9 - 0 0,0
22.09.2018 03:00:00 24,6 12,2 23,1 34 18 49 26 WNW 1014,9 - 0 0,0
22.09.2018 02:00:00 24,2 13,7 22,4 12 6 26 14 WSW 1015,4 - 0 0,0
22.09.2018 01:00:00 24,0 14,4 22,5 9 5 32 18 W 1015,7 - 0 0,0
22.09.2018 00:00:00 24,6 15,8 22,4 14 7 21 11 W 1015,7 - 0 0,0
21.09.2018 23:00:00 25,3 15,6 23,5 8 4 18 10 W 1015,6 - 0 0,0
21.09.2018 22:00:00 25,6 15,3 23,9 8 4 21 11 W 1015,4 - 0 0,0
21.09.2018 21:00:00 27,1 15,1 26,1 18 10 27 15 WNW 1015,0 - 0 0,0
21.09.2018 20:00:00 28,5 14,7 27,3 18 10 33 18 W 1014,2 - 8 0,0
21.09.2018 19:00:00 30,6 13,8 30,6 20 11 43 23 W 1013,8 - 52 0,0
21.09.2018 18:00:00 31,9 12,7 34,5 26 14 45 24 W 1013,2 - 60 0,0
21.09.2018 17:00:00 33,1 12,7 34,7 24 13 40 22 WNW 1013,0 - 60 0,0
21.09.2018 16:00:00 33,8 12,2 38,8 21 11 41 22 W 1013,3 - 60 0,0
21.09.2018 15:00:00 33,4 12,9 38,6 17 9 39 21 W 1013,7 - 60 0,0
21.09.2018 14:00:00 32,9 14,0 39,0 18 10 32 18 W 1014,5 20 60 0,0
21.09.2018 13:00:00 31,9 14,1 38,3 18 10 30 16 W 1015,2 20 60 0,0
21.09.2018 12:00:00 30,0 13,7 36,0 11 6 25 14 WSW 1016,0 20 60 0,0
21.09.2018 11:00:00 27,3 17,5 29,8 2 1 8 5 S 1016,5 15 60 0,0
21.09.2018 10:00:00 22,9 16,9 24,7 3 1 6 3 SSE 1016,9 15 60 0,0
21.09.2018 09:00:00 19,9 16,5 17,3 0 0 3 2 N 1016,6 10 60 0,0
21.09.2018 08:00:00 16,0 14,7 13,8 0 0 3 2 N 1016,7 14 19 0,0
21.09.2018 07:00:00 15,8 14,5 13,8 0 0 3 2 N 1016,5 6 0 0,0
21.09.2018 06:00:00 15,8 14,2 14,7 3 1 5 3 ESE 1016,4 10 0 0,0
21.09.2018 05:00:00 16,3 14,8 14,8 0 0 5 3 N 1016,6 13 0 0,0
21.09.2018 04:00:00 17,3 15,5 15,4 3 2 5 3 W 1016,7 15 0 0,0
21.09.2018 03:00:00 17,8 15,4 16,2 0 0 3 1 N 1017,0 15 0 0,0
21.09.2018 02:00:00 18,6 15,8 16,8 0 0 3 2 N 1017,2 18 0 0,0
21.09.2018 01:00:00 19,2 16,4 17,6 0 0 3 1 N 1017,2 19 0 0,0
21.09.2018 00:00:00 20,2 16,6 18,6 0 0 4 2 N 1017,4 20 0 0,0
20.09.2018 23:00:00 21,1 17,1 19,3 0 0 4 2 N 1017,4 20 0 0,0
20.09.2018 22:00:00 22,6 17,5 21,3 5 3 8 5 SSW 1017,2 30 0 0,0
20.09.2018 21:00:00 23,8 17,5 21,8 5 3 13 7 N 1017,1 28 0 0,0
20.09.2018 20:00:00 25,1 17,8 23,3 4 2 15 8 ENE 1016,6 31 0 0,0
20.09.2018 19:00:00 27,1 18,7 27,3 13 7 24 13 E 1016,3 15 45 0,0
20.09.2018 18:00:00 30,0 17,5 33,5 11 6 21 12 SE 1015,9 38 60 0,0
20.09.2018 17:00:00 31,4 16,6 34,0 10 5 31 17 SW 1015,9 15 60 0,0

tt = temperature
td = dewpoint
tt 5cm = temperature 5cm
ff = wind speed
fx = gusts
dd = wind direction
ppp = reduced air pressure
vv = visibility
sd = sunshine duration
rr = precipitation

Next stations